TimeCDT,TemperatureF,Dew PointF,Humidity,Sea Level PressureIn,VisibilityMPH,Wind Direction,Wind SpeedMPH,Gust SpeedMPH,PrecipitationIn,Events,Conditions,WindDirDegrees,DateUTC
12:54 AM,26.1,16.0,66,30.04,10.0,East,4.6,-,N/A,,Clear,90,2013-03-22 05:54:00
1:54 AM,26.1,16.0,66,30.05,10.0,ESE,4.6,-,N/A,,Clear,110,2013-03-22 06:54:00
2:54 AM,25.0,15.1,66,30.06,10.0,East,4.6,-,N/A,,Clear,80,2013-03-22 07:54:00
3:54 AM,23.0,16.0,74,30.04,10.0,ENE,3.5,-,N/A,,Clear,70,2013-03-22 08:54:00
4:54 AM,19.9,15.1,81,30.04,10.0,NE,5.8,-,N/A,,Clear,50,2013-03-22 09:54:00
5:54 AM,23.0,16.0,74,30.05,10.0,East,4.6,-,N/A,,Clear,80,2013-03-22 10:54:00
6:54 AM,23.0,16.0,74,30.06,10.0,East,3.5,-,N/A,,Clear,100,2013-03-22 11:54:00
7:54 AM,25.0,17.1,72,30.06,10.0,East,5.8,-,N/A,,Overcast,80,2013-03-22 12:54:00
8:54 AM,27.0,18.0,69,30.07,10.0,East,6.9,-,N/A,,Overcast,90,2013-03-22 13:54:00
9:54 AM,30.0,19.0,64,30.07,10.0,ESE,8.1,-,N/A,,Overcast,110,2013-03-22 14:54:00
10:54 AM,32.0,17.1,54,30.07,10.0,ESE,8.1,-,N/A,,Overcast,120,2013-03-22 15:54:00
11:54 AM,34.0,17.1,50,30.05,10.0,SE,8.1,-,N/A,,Overcast,130,2013-03-22 16:54:00
12:54 PM,35.1,16.0,46,30.04,10.0,ESE,6.9,-,N/A,,Overcast,120,2013-03-22 17:54:00
1:54 PM,36.0,17.1,46,30.04,10.0,Variable,4.6,-,N/A,,Overcast,0,2013-03-22 18:54:00
2:54 PM,37.0,17.1,44,30.02,10.0,East,4.6,-,N/A,,Overcast,80,2013-03-22 19:54:00
3:54 PM,37.0,18.0,46,30.03,10.0,SE,3.5,-,N/A,,Overcast,130,2013-03-22 20:54:00
4:54 PM,37.0,17.1,44,30.01,10.0,Calm,Calm,-,N/A,,Overcast,0,2013-03-22 21:54:00
5:54 PM,37.9,18.0,45,30.01,10.0,Calm,Calm,-,N/A,,Overcast,0,2013-03-22 22:54:00
6:54 PM,37.0,19.9,50,30.04,10.0,Calm,Calm,-,N/A,,Overcast,0,2013-03-22 23:54:00
7:54 PM,36.0,21.9,57,30.04,10.0,Calm,Calm,-,N/A,,Overcast,0,2013-03-23 00:54:00
8:54 PM,35.1,24.1,64,30.04,10.0,Calm,Calm,-,N/A,,Overcast,0,2013-03-23 01:54:00
9:54 PM,36.0,21.0,55,30.04,10.0,Calm,Calm,-,N/A,,Overcast,0,2013-03-23 02:54:00
10:54 PM,35.1,21.0,57,30.06,10.0,Calm,Calm,-,N/A,,Overcast,0,2013-03-23 03:54:00
11:54 PM,35.1,21.0,57,30.05,10.0,Calm,Calm,-,N/A,,Overcast,0,2013-03-23 04:54:00